SILO ALERT LOG
| Silo ID | Alert Type | Alert Message | Silo Type | Points | Depth (mm) | Strength | Temperature (°C) | Humidity (%) | Height (mm) | Volume (㎥) | Weight (t) | Flag | Time |
|---|---|---|---|---|---|---|---|---|---|---|---|---|---|
| DJSAD11 | Humidity | 습도센서 측정값이 80% 초과 | 평 | 336 | 1654 | 3293 | 0.9 | 80.5 | 5925 | 843.207 | 533.075 | 11 | 2024-01-14 06:39:35.000 |
| DJHNR11 | Temperature | 온도센서 측정값이 0도 미만 | 호퍼 | 118 | 1949 | 3349 | -3.6 | 75.6 | 8430 | 127.894 | 80.855 | 11 | 2024-01-14 06:39:33.000 |
| DJSSD01 | Humidity | 습도센서 측정값이 80% 초과 | 평 | 805 | 2569 | 4714 | 4.7 | 84.2 | 5510 | 766.935 | 484.856 | 0 | 2024-01-14 06:39:33.000 |
| DJSSD04 | Temperature | 온도센서 상태 이상 | 평 | 0 | 8200 | 0 | -999 | -999 | -120 | -16.702 | 0 | 31 | 2024-01-14 06:39:33.000 |
| DJSSD05 | Temperature | 온도센서 측정값이 0도 미만 | 평 | 840 | 2539 | 4900 | -45.4 | 43.6 | 5540 | 771.145 | 487.518 | 0 | 2024-01-14 06:39:33.000 |
| DJDJD04 | Humidity | 습도센서 측정값이 80% 초과 | 평 | 279 | 4180 | 4437 | 2.4 | 82.4 | 3499 | 424.018 | 268.064 | 11 | 2024-01-14 06:39:32.000 |
| DJSAD08 | Humidity | 습도센서 측정값이 80% 초과 | 평 | 538 | 2311 | 4885 | 6.7 | 84 | 5268 | 749.62 | 473.909 | 12 | 2024-01-14 06:39:32.000 |
| DJHNR01 | Humidity | 습도센서 측정값이 80% 초과 | 호퍼 | 471 | 4315 | 4898 | 3.7 | 99.9 | 11064 | 472.262 | 298.564 | 13 | 2024-01-14 06:39:32.000 |
| DJSAD18 | Humidity | 습도센서 측정값이 80% 초과 | 평 | 118 | 1497 | 5739 | 4 | 80.8 | 6082 | 605.654 | 382.895 | 11 | 2024-01-14 06:39:31.000 |
| DJSAD16 | Humidity | 습도센서 측정값이 80% 초과 | 평 | 88 | 6473 | 3434 | 3.8 | 80.5 | 1106 | 110.202 | 69.67 | 11 | 2024-01-14 06:39:31.000 |
| DJSAD17 | Humidity | 습도센서 측정값이 80% 초과 | 평 | 447 | 3139 | 4757 | 3.3 | 81.6 | 4440 | 442.169 | 279.539 | 0 | 2024-01-14 06:39:31.000 |
| DJSSD09 | Temperature | 온도센서 측정값이 0도 미만 | 평 | 126 | 2903 | 3997 | -45.4 | 0 | 4776 | 664.789 | 420.28 | 11 | 2024-01-14 06:39:31.000 |
| DJSSD11 | Temperature | 온도센서 측정값이 0도 미만 | 호퍼 | 445 | 7388 | 154 | -4.3 | 72.9 | 3841 | 28.929 | 15.767 | 0 | 2024-01-14 06:39:31.000 |
| DJHNR13 | Temperature | 온도센서 측정값이 0도 미만 | 호퍼 | 11 | 2739 | 3100 | -3.9 | 72 | 7640 | 110.866 | 70.089 | 11 | 2024-01-14 06:39:30.000 |
| DJDJD01 | Temperature | 온도센서 측정값이 0도 미만 | 평 | 316 | 6822 | 5919 | -1.1 | 79.3 | 857 | 103.909 | 65.691 | 11 | 2024-01-14 06:39:30.000 |
| DJHNR04 | Temperature | 온도센서 측정값이 0도 미만 | 호퍼 | 0 | 15500 | 5022 | -0.7 | 67.6 | -119 | 0 | 0 | 29 | 2024-01-14 06:39:30.000 |
| DJHNR14 | Temperature | 온도센서 측정값이 0도 미만 | 호퍼 | 42 | 2985 | 4485 | -4.3 | 74.5 | 7394 | 105.54 | 66.723 | 11 | 2024-01-14 06:39:29.000 |
| DJHNR03 | Temperature | 온도센서 상태 이상 | 호퍼 | 0 | 15500 | 0 | -999 | -999 | -119 | 0 | 0 | 31 | 2024-01-14 06:39:24.000 |
| DJSSD12 | Temperature | 온도센서 상태 이상 | 호퍼 | 0 | 11350 | 0 | -999 | -999 | -120 | 0 | 0 | 31 | 2024-01-14 06:39:24.000 |
| DJHNR12 | Temperature | 온도센서 측정값이 0도 미만 | 호퍼 | 0 | 10500 | 0 | -2.9 | 77.6 | -120 | 0 | 0 | 31 | 2024-01-14 06:39:23.000 |
[첫 페이지] [9949] [9950] [9951] [9952] 9953 [9954] [9955] [9956] [9957] [마지막 페이지]